DW6665 Seattle WA US current weather conditions

sailwx.info

Wind from 133 at 0 knots gusting 3

Air temperature 4.4° C
Dewpoint 0.0° C

Last reported at 2019-Dec-15 19:47 UTC.
Time now 2019-Dec-15 20:51 UTC

Location: N 47°33' W 122°23'.
View on Google Maps.

See reports from other nearby stations

  
Tides and Currents Weather Stations Pressure Air Temp Water Temp Dewpoint Dewpoint Depression Visibility Wind Speed Wind Dir Waves Ship Positions
date/time (UTC)wind fromknots sea level pressurealtimeterstation pressurevisibilityair tempwater tempwave heightnotes
2019-Dec-15 19:47 133 0 gusting 3 4.4
2019-Dec-15 19:32 139 0 gusting 2 4.4
2019-Dec-15 19:17 113 0 gusting 1 4.4
2019-Dec-15 19:02 139 1 gusting 4 4.4
2019-Dec-15 18:47 113 1 gusting 2 4.4
2019-Dec-15 18:32 166 1 gusting 6 3.9
2019-Dec-15 18:17 236 1 gusting 5 3.9
2019-Dec-15 18:02 159 1 gusting 5 3.9
2019-Dec-15 17:47 200 0 gusting 2 3.9
2019-Dec-15 17:32 242 1 gusting 3 3.9
2019-Dec-15 17:17 193 1 gusting 4 3.9
2019-Dec-15 17:02 272 2 gusting 3 3.9
2019-Dec-15 16:47 115 0 gusting 0 3.9
2019-Dec-15 16:32 129 3.9
2019-Dec-15 16:17 118 3.9
2019-Dec-15 16:02 094 0 gusting 1 3.3
2019-Dec-15 15:47 089 0 gusting 1 3.3
2019-Dec-15 15:32 110 3.3
2019-Dec-15 15:17 085 1 gusting 2 3.3
2019-Dec-15 15:02 098 1 gusting 1 3.9
2019-Dec-15 14:47 089 0 gusting 1 3.9
2019-Dec-15 14:32 135 3.9
2019-Dec-15 14:17 243 4.4
2019-Dec-15 14:02 163 3.9
2019-Dec-15 13:47 238 3.9
2019-Dec-15 13:32 133 3.9
2019-Dec-15 13:17 133 3.9
2019-Dec-15 13:02 133 3.9
2019-Dec-15 12:47 132 3.3
2019-Dec-15 12:32 132 3.3
2019-Dec-15 12:17 132 3.9
2019-Dec-15 12:02 134 0 gusting 1 3.3
2019-Dec-15 11:47 132 0 gusting 1 3.9
2019-Dec-15 11:32 096 0 gusting 1 3.9
2019-Dec-15 11:17 101 3.9
2019-Dec-15 11:02 097 3.9
2019-Dec-15 10:47 094 3.9
2019-Dec-15 10:32 106 0 gusting 3 3.9
2019-Dec-15 10:17 117 0 gusting 1 4.4
2019-Dec-15 10:02 101 0 gusting 2 4.4
2019-Dec-15 09:47 081 0 gusting 3 4.4
2019-Dec-15 09:32 067 0 gusting 1 4.4
2019-Dec-15 09:17 314 1 gusting 4 5.0
2019-Dec-15 09:02 352 1 gusting 2 5.0
2019-Dec-15 08:47 298 1 gusting 3 5.0
2019-Dec-15 08:32 270 0 gusting 3 5.6
2019-Dec-15 08:17 260 1 gusting 4 5.6
2019-Dec-15 08:02 283 1 gusting 4 5.0
2019-Dec-15 07:47 204 0 gusting 1 5.0
2019-Dec-15 07:32 161 5.0
2019-Dec-15 07:17 160 5.0
2019-Dec-15 07:02 161 4.4
2019-Dec-15 06:47 127 4.4
2019-Dec-15 06:32 127 4.4
2019-Dec-15 06:17 121 0 gusting 1 4.4
2019-Dec-15 06:02 115 5.0
2019-Dec-15 05:47 115 5.0
2019-Dec-15 05:32 133 0 gusting 1 5.0
2019-Dec-15 05:17 103 5.0
2019-Dec-15 05:02 091 5.0
2019-Dec-15 04:47 089 5.0
2019-Dec-15 04:32 098 5.0
2019-Dec-15 04:17 104 5.0
2019-Dec-15 04:02 104 0 gusting 0 5.0
2019-Dec-15 03:47 094 0 gusting 1 5.0
2019-Dec-15 03:32 087 5.0
2019-Dec-15 03:18 093 0 gusting 1 5.0
2019-Dec-15 03:02 088 0 gusting 1 5.0
2019-Dec-15 02:47 090 0 gusting 1 5.0
2019-Dec-15 02:32 090 0 gusting 2 5.0
2019-Dec-15 02:17 086 0 gusting 0 5.0
2019-Dec-15 02:02 094 0 gusting 1 5.0
2019-Dec-15 01:47 044 1 gusting 4 5.0
2019-Dec-15 01:32 018 0 gusting 4 5.0
2019-Dec-15 01:17 087 5.6
2019-Dec-15 01:02 107 5.6
2019-Dec-15 00:47 114 5.6
2019-Dec-15 00:32 109 5.6
2019-Dec-15 00:17 113 5.6
2019-Dec-15 00:02 136 5.6
2019-Dec-14 23:47 129 0 gusting 2 5.6
2019-Dec-14 23:32 184 5.6
2019-Dec-14 23:17 184 5.6
2019-Dec-14 23:02 201 0 gusting 2 5.6
2019-Dec-14 22:47 153 5.6
2019-Dec-14 22:32 226 0 gusting 3 5.6
2019-Dec-14 22:17 217 1 gusting 3 5.6
2019-Dec-14 22:02 205 0 gusting 2 5.6
2019-Dec-14 21:47 224 0 gusting 1 5.6
2019-Dec-14 21:32 221 1 gusting 2 5.6
2019-Dec-14 21:02 170 2 gusting 4 5.6
2019-Dec-14 20:47 203 1 gusting 3 5.6
2019-Dec-14 20:32 195 2 gusting 5 5.6
2019-Dec-14 20:17 173 2 gusting 6 5.6
2019-Dec-14 20:02 239 1 gusting 5 5.6
2019-Dec-14 19:47 195 1 gusting 3 6.1
2019-Dec-14 19:32 238 2 gusting 5 6.1
2019-Dec-14 19:17 166 2 gusting 5 5.6
2019-Dec-14 19:02 226 2 gusting 4 5.6
2019-Dec-14 18:47 225 3 gusting 5 5.6
2019-Dec-14 18:32 201 3 gusting 5 5.6
2019-Dec-14 18:17 200 2 gusting 6 5.6
2019-Dec-14 18:02 212 3 gusting 6 5.6
2019-Dec-14 17:47 218 5 gusting 7 5.6
2019-Dec-14 17:32 200 2 gusting 6 5.6
2019-Dec-14 17:17 238 2 gusting 4 5.6
2019-Dec-14 17:02 222 2 gusting 6 5.0
2019-Dec-14 16:47 239 2 gusting 5 5.6
2019-Dec-14 16:32 217 0 gusting 4 5.6
2019-Dec-14 16:17 222 1 gusting 5 5.6
2019-Dec-14 16:02 229 3 gusting 5 5.6
2019-Dec-14 15:47 188 2 gusting 5 5.6
2019-Dec-14 15:32 236 2 gusting 4 5.6
2019-Dec-14 15:17 217 1 gusting 2 5.6
2019-Dec-14 15:02 207 0 gusting 3 5.6
2019-Dec-14 14:47 177 5.6
2019-Dec-14 14:32 153 5.6
2019-Dec-14 14:17 160 5.6
2019-Dec-14 14:02 223 5.6
2019-Dec-14 13:47 243 0 gusting 3 5.6
2019-Dec-14 13:32 155 1 gusting 4 5.6
2019-Dec-14 13:17 240 1 gusting 3 5.6
2019-Dec-14 13:02 235 2 gusting 6 5.6
2019-Dec-14 12:47 256 3 gusting 5 5.6
2019-Dec-14 12:17 218 5.6
2019-Dec-14 12:02 217 5.6
2019-Dec-14 11:47 276 0 gusting 3 5.6
2019-Dec-14 11:32 208 1 gusting 3 5.6
2019-Dec-14 11:17 249 2 gusting 3 5.6
2019-Dec-14 11:02 212 2 gusting 4 5.6
2019-Dec-14 10:47 201 5.6
2019-Dec-14 10:32 236 0 gusting 2 5.6
2019-Dec-14 10:17 237 1 gusting 2 5.6
2019-Dec-14 10:02 238 1 gusting 3 5.6
2019-Dec-14 09:47 264 1 gusting 3 6.1
2019-Dec-14 09:32 222 2 gusting 5 6.1
2019-Dec-14 09:02 228 6.1
2019-Dec-14 08:47 208 6.1
2019-Dec-14 08:32 232 2 gusting 3 6.1
2019-Dec-14 08:17 255 1 gusting 3 6.1
2019-Dec-14 08:02 222 1 gusting 5 6.1
2019-Dec-14 07:47 226 1 gusting 3 6.1
2019-Dec-14 07:32 250 1 gusting 5 6.1
2019-Dec-14 07:17 260 2 gusting 5 6.1
2019-Dec-14 07:02 250 2 gusting 4 6.1
2019-Dec-14 06:47 225 2 gusting 6 6.1
2019-Dec-14 06:32 248 3 gusting 6 6.7
2019-Dec-14 06:17 287 2 gusting 4 6.7
2019-Dec-14 06:02 270 1 gusting 5 6.7
2019-Dec-14 05:47 211 2 gusting 4 6.7
2019-Dec-14 05:32 217 2 gusting 3 7.2
2019-Dec-14 05:17 183 1 gusting 3 7.2
2019-Dec-14 05:02 257 2 gusting 3 7.2
2019-Dec-14 04:47 243 1 gusting 3 7.2
2019-Dec-14 04:32 230 0 gusting 2 7.2
2019-Dec-14 04:17 223 6.7
2019-Dec-14 04:02 224 6.7
2019-Dec-14 03:47 224 7.2
2019-Dec-14 03:32 271 7.2
2019-Dec-14 03:17 271 7.2
2019-Dec-14 03:02 262 0 gusting 1 7.2
2019-Dec-14 02:47 257 1 gusting 2 7.8
2019-Dec-14 02:32 248 7.2
2019-Dec-14 02:17 245 7.8
2019-Dec-14 02:02 269 7.8
2019-Dec-14 01:47 246 1 gusting 2 7.8
2019-Dec-14 01:32 270 0 gusting 2 7.8
2019-Dec-14 01:17 239 0 gusting 3 7.8
2019-Dec-14 01:02 264 7.8
2019-Dec-14 00:47 205 0 gusting 2 7.8
2019-Dec-14 00:32 208 7.8
2019-Dec-14 00:17 249 7.8
2019-Dec-14 00:02 250 0 gusting 2 7.8
2019-Dec-13 23:32 259 3 gusting 6 7.8
2019-Dec-13 23:17 246 4 gusting 8 8.3
2019-Dec-13 23:02 286 3 gusting 6 8.3
2019-Dec-13 22:47 236 2 gusting 6 8.3
2019-Dec-13 22:32 242 1 gusting 6 8.3
2019-Dec-13 22:17 231 4 gusting 6 8.3
2019-Dec-13 22:02 237 5 gusting 7 8.3
2019-Dec-13 21:47 225 3 gusting 5 8.3
2019-Dec-13 21:32 205 3 gusting 6 7.8
2019-Dec-13 21:17 193 4 gusting 6 7.8
2019-Dec-13 21:02 184 4 gusting 7 7.8
2019-Dec-13 20:47 242 5 gusting 6 7.8
2019-Dec-13 20:32 203 2 gusting 8 7.8
2019-Dec-13 20:17 283 1 gusting 4 7.8
2019-Dec-13 20:02 224 1 gusting 5 7.2